This demonstration page uses our WeatherBlox Daily Observations layout. Learn more.

Left ArrowRight Arrow

Hourly Observations for March 15, 2021

Temp ( °F °C ) Dew Point ( °F °C ) Humidity (%) Winds ( mph kmh ) Pressure ( in mb ) Visibility ( mi km ) Precip ( " mm )
12:51 am 00:51 Clear 42 5.6 31 -0.6 65 65 VRB 3 6 29.99 1016 10 16.0934 0 0
1:51 am 01:51 Clear 42 5.6 31 -0.6 65 65 S 7 11 29.98 1015 10 16.0934 0 0
2:51 am 02:51 Clear 39 3.9 31 -0.6 73 73 ENE 7 11 29.98 1015 10 16.0934 0 0
3:51 am 03:51 Clear 38 3.3 31 -0.6 76 76 ESE 7 11 29.96 1015 10 16.0934 0 0
4:51 am 04:51 Clear 39 3.9 31 -0.6 73 73 Calm 29.96 1015 10 16.0934 0 0
5:51 am 05:51 Clear 34 1.1 29 -1.7 82 82 SE 6 9 29.99 1016 10 16.0934 0 0
6:51 am 06:51 Sunny 35 1.7 29 -1.7 78 78 ESE 5 7 29.99 1016 10 16.0934 0 0
7:51 am 07:51 Sunny 42 5.6 32 0 68 68 ESE 5 7 30 1016 10 16.0934 0 0
8:51 am 08:51 Sunny 50 10 34 1.1 54 54 SSE 5 7 30 1016 10 16.0934 0 0
9:51 am 09:51 Sunny 55 12.8 31 -0.6 40 40 ESE 6 9 29.98 1015 10 16.0934 0 0
10:51 am 10:51 Sunny 58 14.4 31 -0.6 36 36 SSE 10 17 29.95 1014 10 16.0934 0 0
11:51 am 11:51 Sunny 60 15.6 29 -1.7 31 31 SSW 6 9 29.92 1013 10 16.0934 0 0
12:51 pm 12:51 Sunny 63 17.2 29 -1.7 28 28 VRB 5 7 29.88 1012 10 16.0934 0 0
1:51 pm 13:51 Sunny 64 17.8 27 -2.8 25 25 NNE 7 11 29.85 1011 10 16.0934 0 0
2:51 pm 14:51 Sunny 65 18.3 26 -3.3 23 23 NNE 5 7 29.82 1010 10 16.0934 0 0
3:51 pm 15:51 Sunny 65 18.3 26 -3.3 23 23 undefined N/A 29.81 1010 10 16.0934 0 0
4:51 pm 16:51 Mostly Sunny 66 18.9 26 -3.3 22 22 NW 8 13 29.79 1009 10 16.0934 0 0
5:51 pm 17:51 Mostly Cloudy 65 18.3 23 -5 20 20 NW 16 26 29.79 1009 10 16.0934 0 0
6:51 pm 18:51 Mostly Clear 62 16.7 23 -5 22 22 NNW 5 7 29.78 1008 10 16.0934 0 0
7:51 pm 19:51 Clear 59 15 22 -5.6 24 24 N 7 11 29.76 1008 10 16.0934 0 0
8:51 pm 20:51 Clear 56 13.3 22 -5.6 27 27 NE 7 11 29.74 1007 10 16.0934 0 0
9:51 pm 21:51 Clear 54 12.2 21 -6.1 28 28 ESE 9 15 29.74 1007 10 16.0934 0 0
10:51 pm 22:51 Clear 53 11.7 22 -5.6 30 30 ESE 8 13 29.72 1007 10 16.0934 0 0
11:51 pm 23:51 Clear 58 14.4 18 -7.8 21 21 VRB 7 11 29.69 1006 10 16.0934 0 0

Powered by AerisWeather